Year,Month,Day,Hour,Minute,Value (Times are PST for temperature in C)
2016,06,04,00,00,14.60
2016,06,04,00,01,14.60
2016,06,04,00,02,14.60
2016,06,04,00,03,14.50
2016,06,04,00,04,14.50
2016,06,04,00,05,14.50
2016,06,04,00,06,14.50
2016,06,04,00,07,14.40
2016,06,04,00,08,14.40
2016,06,04,00,09,14.40
2016,06,04,00,10,14.40
2016,06,04,00,11,14.40
2016,06,04,00,12,14.40
2016,06,04,00,13,14.30
2016,06,04,00,14,14.30
2016,06,04,00,15,14.30
2016,06,04,00,16,14.30
2016,06,04,00,17,14.20
2016,06,04,00,18,14.20
2016,06,04,00,19,14.20
2016,06,04,00,20,14.20
2016,06,04,00,21,14.10
2016,06,04,00,22,14.10
2016,06,04,00,23,14.10
2016,06,04,00,24,14.10
2016,06,04,00,25,14.10
2016,06,04,00,26,14.10
2016,06,04,00,27,14.10
2016,06,04,00,28,14.10
2016,06,04,00,29,14.10
2016,06,04,00,30,14.10
2016,06,04,00,31,14.10
2016,06,04,00,32,14.10
2016,06,04,00,33,14.10
2016,06,04,00,34,14.10
2016,06,04,00,35,14.20
2016,06,04,00,36,14.20
2016,06,04,00,37,14.20
2016,06,04,00,38,14.20
2016,06,04,00,39,14.10
2016,06,04,00,40,14.10
2016,06,04,00,41,14.10
2016,06,04,00,42,14.10
2016,06,04,00,43,14.10
2016,06,04,00,44,14.10
2016,06,04,00,45,14.20
2016,06,04,00,46,14.20
2016,06,04,00,47,14.30
2016,06,04,00,48,14.30
2016,06,04,00,49,14.30
2016,06,04,00,50,14.30
2016,06,04,00,51,14.30
2016,06,04,00,52,14.30
2016,06,04,00,53,14.30
2016,06,04,00,54,14.20
2016,06,04,00,55,14.10
2016,06,04,00,56,14.10
2016,06,04,00,57,14.10
2016,06,04,00,58,14.00
2016,06,04,00,59,14.00
2016,06,04,01,00,13.90
2016,06,04,01,01,13.90
2016,06,04,01,02,13.80
2016,06,04,01,03,13.80
2016,06,04,01,04,13.70
2016,06,04,01,05,13.70
2016,06,04,01,06,13.60
2016,06,04,01,07,13.60
2016,06,04,01,08,13.50
2016,06,04,01,09,13.40
2016,06,04,01,10,13.40
2016,06,04,01,11,13.30
2016,06,04,01,12,13.30
2016,06,04,01,13,13.30
2016,06,04,01,14,13.30
2016,06,04,01,15,13.30
2016,06,04,01,16,13.30
2016,06,04,01,17,13.20
2016,06,04,01,18,13.20
2016,06,04,01,19,13.20
2016,06,04,01,20,13.20
2016,06,04,01,21,13.20
2016,06,04,01,22,13.20
2016,06,04,01,23,13.10
2016,06,04,01,24,13.10
2016,06,04,01,25,13.10
2016,06,04,01,26,13.10
2016,06,04,01,27,13.00
2016,06,04,01,28,13.00
2016,06,04,01,29,13.00
2016,06,04,01,30,13.00
2016,06,04,01,31,13.00
2016,06,04,01,32,12.90
2016,06,04,01,33,12.90
2016,06,04,01,34,12.90
2016,06,04,01,35,12.90
2016,06,04,01,36,12.90
2016,06,04,01,37,12.90
2016,06,04,01,38,12.90
2016,06,04,01,39,12.90
2016,06,04,01,40,12.90
2016,06,04,01,41,12.90
2016,06,04,01,42,12.90
2016,06,04,01,43,12.90
2016,06,04,01,44,12.90
2016,06,04,01,45,12.80
2016,06,04,01,46,12.80
2016,06,04,01,47,12.80
2016,06,04,01,48,12.80
2016,06,04,01,49,12.80
2016,06,04,01,50,12.70
2016,06,04,01,51,12.70
2016,06,04,01,52,12.70
2016,06,04,01,53,12.70
2016,06,04,01,54,12.60
2016,06,04,01,55,12.60
2016,06,04,01,56,12.60
2016,06,04,01,57,12.50
2016,06,04,01,58,12.50
2016,06,04,01,59,12.50
2016,06,04,02,00,12.50
2016,06,04,02,01,12.50
2016,06,04,02,02,12.50
2016,06,04,02,03,12.50
2016,06,04,02,04,12.50
2016,06,04,02,05,12.50
2016,06,04,02,06,12.50
2016,06,04,02,07,12.50
2016,06,04,02,08,12.50
2016,06,04,02,09,12.50
2016,06,04,02,10,12.40
2016,06,04,02,11,12.40
2016,06,04,02,12,12.40
2016,06,04,02,13,12.40
2016,06,04,02,14,12.40
2016,06,04,02,15,12.40
2016,06,04,02,16,12.40
2016,06,04,02,17,12.40
2016,06,04,02,18,12.30
2016,06,04,02,19,12.30
2016,06,04,02,20,12.30
2016,06,04,02,21,12.30
2016,06,04,02,22,12.30
2016,06,04,02,23,12.30
2016,06,04,02,24,12.30
2016,06,04,02,25,12.20
2016,06,04,02,26,12.20
2016,06,04,02,27,12.20
2016,06,04,02,28,12.20
2016,06,04,02,29,12.20
2016,06,04,02,30,12.20
2016,06,04,02,31,12.20
2016,06,04,02,32,12.20
2016,06,04,02,33,12.20
2016,06,04,02,34,12.20
2016,06,04,02,35,12.20
2016,06,04,02,36,12.10
2016,06,04,02,37,12.10
2016,06,04,02,38,12.00
2016,06,04,02,39,11.90
2016,06,04,02,40,11.90
2016,06,04,02,41,11.90
2016,06,04,02,42,11.90
2016,06,04,02,43,11.90
2016,06,04,02,44,11.90
2016,06,04,02,45,11.90
2016,06,04,02,46,11.90
2016,06,04,02,47,11.90
2016,06,04,02,48,11.90
2016,06,04,02,49,11.90
2016,06,04,02,50,11.80
2016,06,04,02,51,11.80
2016,06,04,02,52,11.80
2016,06,04,02,53,11.80
2016,06,04,02,54,11.80
2016,06,04,02,55,11.80
2016,06,04,02,56,11.80
2016,06,04,02,57,11.70
2016,06,04,02,58,11.70
2016,06,04,02,59,11.70
2016,06,04,03,00,11.70
2016,06,04,03,01,11.70
2016,06,04,03,02,11.70
2016,06,04,03,03,11.70
2016,06,04,03,04,11.70
2016,06,04,03,05,11.80
2016,06,04,03,06,11.80
2016,06,04,03,07,11.80
2016,06,04,03,08,11.80
2016,06,04,03,09,11.80
2016,06,04,03,10,11.90
2016,06,04,03,11,11.90
2016,06,04,03,12,11.90
2016,06,04,03,13,11.90
2016,06,04,03,14,11.90
2016,06,04,03,15,11.90
2016,06,04,03,16,11.90
2016,06,04,03,17,11.90
2016,06,04,03,18,11.80
2016,06,04,03,19,11.80
2016,06,04,03,20,11.80
2016,06,04,03,21,11.70
2016,06,04,03,22,11.70
2016,06,04,03,23,11.70
2016,06,04,03,24,11.70
2016,06,04,03,25,11.70
2016,06,04,03,26,11.70
2016,06,04,03,27,11.70
2016,06,04,03,28,11.60
2016,06,04,03,29,11.60
2016,06,04,03,30,11.60
2016,06,04,03,31,11.60
2016,06,04,03,32,11.70
2016,06,04,03,33,11.70
2016,06,04,03,34,11.70
2016,06,04,03,35,11.70
2016,06,04,03,36,11.80
2016,06,04,03,37,11.80
2016,06,04,03,38,11.80
2016,06,04,03,39,11.80
2016,06,04,03,40,11.70
2016,06,04,03,41,11.70
2016,06,04,03,42,11.70
2016,06,04,03,43,11.70
2016,06,04,03,44,11.70
2016,06,04,03,45,11.70
2016,06,04,03,46,11.70
2016,06,04,03,47,11.80
2016,06,04,03,48,11.80
2016,06,04,03,49,11.80
2016,06,04,03,50,11.80
2016,06,04,03,51,11.80
2016,06,04,03,52,11.80
2016,06,04,03,53,11.70
2016,06,04,03,54,11.70
2016,06,04,03,55,11.70
2016,06,04,03,56,11.70
2016,06,04,03,57,11.60
2016,06,04,03,58,11.50
2016,06,04,03,59,11.50
2016,06,04,04,00,11.50
2016,06,04,04,01,11.40
2016,06,04,04,02,11.50
2016,06,04,04,03,11.50
2016,06,04,04,05,11.60
2016,06,04,04,06,11.60
2016,06,04,04,07,11.60
2016,06,04,04,08,11.60
2016,06,04,04,09,11.60
2016,06,04,04,10,11.60
2016,06,04,04,11,11.60
2016,06,04,04,12,11.50
2016,06,04,04,13,11.50
2016,06,04,04,14,11.50
2016,06,04,04,15,11.40
2016,06,04,04,16,11.40
2016,06,04,04,17,11.40
2016,06,04,04,18,11.40
2016,06,04,04,19,11.40
2016,06,04,04,20,11.50
2016,06,04,04,21,11.50
2016,06,04,04,22,11.60
2016,06,04,04,23,11.60
2016,06,04,04,24,11.70
2016,06,04,04,25,11.70
2016,06,04,04,26,11.70
2016,06,04,04,27,11.80
2016,06,04,04,28,11.80
2016,06,04,04,29,11.80
2016,06,04,04,30,11.80
2016,06,04,04,31,11.80
2016,06,04,04,32,11.80
2016,06,04,04,33,11.80
2016,06,04,04,34,11.80
2016,06,04,04,35,11.80
2016,06,04,04,36,11.80
2016,06,04,04,37,11.70
2016,06,04,04,38,11.80
2016,06,04,04,39,11.70
2016,06,04,04,40,11.70
2016,06,04,04,41,11.70
2016,06,04,04,42,11.80
2016,06,04,04,43,11.80
2016,06,04,04,44,11.80
2016,06,04,04,45,11.80
2016,06,04,04,46,11.80
2016,06,04,04,47,11.80
2016,06,04,04,48,11.90
2016,06,04,04,49,11.90
2016,06,04,04,50,11.90
2016,06,04,04,51,11.90
2016,06,04,04,52,11.90
2016,06,04,04,53,11.90
2016,06,04,04,54,11.90
2016,06,04,04,55,11.90
2016,06,04,04,56,11.90
2016,06,04,04,57,11.90
2016,06,04,04,58,11.80
2016,06,04,04,59,11.80
2016,06,04,05,00,11.70
2016,06,04,05,01,11.70
2016,06,04,05,02,11.60
2016,06,04,05,03,11.60
2016,06,04,05,04,11.60
2016,06,04,05,05,11.60
2016,06,04,05,06,11.60
2016,06,04,05,07,11.50
2016,06,04,05,08,11.50
2016,06,04,05,09,11.50
2016,06,04,05,10,11.60
2016,06,04,05,11,11.60
2016,06,04,05,12,11.60
2016,06,04,05,13,11.60
2016,06,04,05,14,11.60
2016,06,04,05,15,11.60
2016,06,04,05,16,11.70
2016,06,04,05,17,11.70
2016,06,04,05,18,11.70
2016,06,04,05,19,11.70
2016,06,04,05,20,11.70
2016,06,04,05,21,11.70
2016,06,04,05,22,11.70
2016,06,04,05,23,11.70
2016,06,04,05,24,11.70
2016,06,04,05,25,11.70
2016,06,04,05,26,11.70
2016,06,04,05,27,11.70
2016,06,04,05,28,11.70
2016,06,04,05,29,11.70
2016,06,04,05,30,11.70
2016,06,04,05,31,11.70
2016,06,04,05,32,11.80
2016,06,04,05,33,11.80
2016,06,04,05,34,11.90
2016,06,04,05,35,11.90
2016,06,04,05,36,12.00
2016,06,04,05,37,12.00
2016,06,04,05,38,12.10
2016,06,04,05,39,12.10
2016,06,04,05,40,12.20
2016,06,04,05,41,12.20
2016,06,04,05,42,12.20
2016,06,04,05,43,12.20
2016,06,04,05,44,12.20
2016,06,04,05,45,12.20
2016,06,04,05,46,12.20
2016,06,04,05,47,12.20
2016,06,04,05,48,12.10
2016,06,04,05,49,12.00
2016,06,04,05,50,11.90
2016,06,04,05,51,11.90
2016,06,04,05,52,11.80
2016,06,04,05,53,11.90
2016,06,04,05,54,11.90
2016,06,04,05,55,11.90
2016,06,04,05,56,11.90
2016,06,04,05,57,11.90
2016,06,04,05,58,12.00
2016,06,04,05,59,12.00
2016,06,04,06,00,12.00
2016,06,04,06,01,12.10
2016,06,04,06,02,12.10
2016,06,04,06,03,12.10
2016,06,04,06,04,12.10
2016,06,04,06,05,12.20
2016,06,04,06,06,12.20
2016,06,04,06,07,12.20
2016,06,04,06,08,12.30
2016,06,04,06,09,12.30
2016,06,04,06,10,12.40
2016,06,04,06,11,12.40
2016,06,04,06,12,12.40
2016,06,04,06,13,12.40
2016,06,04,06,14,12.50
2016,06,04,06,15,12.50
2016,06,04,06,16,12.60
2016,06,04,06,17,12.60
2016,06,04,06,18,12.60
2016,06,04,06,19,12.70
2016,06,04,06,20,12.70
2016,06,04,06,21,12.70
2016,06,04,06,22,12.70
2016,06,04,06,23,12.80
2016,06,04,06,24,12.80
2016,06,04,06,25,12.80
2016,06,04,06,26,12.80
2016,06,04,06,27,12.80
2016,06,04,06,28,12.90
2016,06,04,06,29,12.90
2016,06,04,06,30,13.00
2016,06,04,06,31,13.00
2016,06,04,06,32,13.10
2016,06,04,06,33,13.10
2016,06,04,06,34,13.20
2016,06,04,06,35,13.20
2016,06,04,06,36,13.20
2016,06,04,06,37,13.30
2016,06,04,06,38,13.30
2016,06,04,06,39,13.30
2016,06,04,06,40,13.40
2016,06,04,06,41,13.40
2016,06,04,06,42,13.40
2016,06,04,06,43,13.50
2016,06,04,06,44,13.50
2016,06,04,06,45,13.50
2016,06,04,06,46,13.50
2016,06,04,06,47,13.60
2016,06,04,06,48,13.60
2016,06,04,06,49,13.60
2016,06,04,06,50,13.60
2016,06,04,06,51,13.60
2016,06,04,06,52,13.60
2016,06,04,06,53,13.60
2016,06,04,06,54,13.60
2016,06,04,06,55,13.60
2016,06,04,06,56,13.70
2016,06,04,06,57,13.70
2016,06,04,06,58,13.70
2016,06,04,06,59,13.70
2016,06,04,07,00,13.80
2016,06,04,07,01,13.80
2016,06,04,07,02,13.80
2016,06,04,07,03,13.80
2016,06,04,07,04,13.80
2016,06,04,07,05,13.80
2016,06,04,07,06,13.80
2016,06,04,07,07,13.80
2016,06,04,07,08,13.80
2016,06,04,07,09,13.80
2016,06,04,07,10,13.90
2016,06,04,07,11,13.90
2016,06,04,07,12,13.90
2016,06,04,07,13,13.90
2016,06,04,07,14,14.00
2016,06,04,07,15,14.00
2016,06,04,07,16,14.00
2016,06,04,07,17,14.10
2016,06,04,07,18,14.20
2016,06,04,07,19,14.20
2016,06,04,07,20,14.20
2016,06,04,07,21,14.30
2016,06,04,07,22,14.40
2016,06,04,07,23,14.50
2016,06,04,07,24,14.60
2016,06,04,07,25,14.70
2016,06,04,07,26,14.80
2016,06,04,07,27,14.90
2016,06,04,07,28,14.90
2016,06,04,07,29,14.90
2016,06,04,07,30,14.90
2016,06,04,07,31,14.90
2016,06,04,07,32,14.90
2016,06,04,07,33,14.90
2016,06,04,07,34,14.90
2016,06,04,07,35,14.90
2016,06,04,07,36,14.90
2016,06,04,07,37,14.90
2016,06,04,07,38,14.90
2016,06,04,07,39,14.80
2016,06,04,07,40,14.80
2016,06,04,07,41,14.80
2016,06,04,07,42,14.90
2016,06,04,07,43,14.80
2016,06,04,07,44,14.80
2016,06,04,07,45,14.80
2016,06,04,07,46,14.80
2016,06,04,07,47,14.80
2016,06,04,07,48,14.90
2016,06,04,07,49,14.90
2016,06,04,07,50,14.90
2016,06,04,07,51,15.00
2016,06,04,07,52,15.10
2016,06,04,07,53,15.10
2016,06,04,07,54,15.20
2016,06,04,07,55,15.20
2016,06,04,07,56,15.20
2016,06,04,07,57,15.20
2016,06,04,07,58,15.30
2016,06,04,07,59,15.30
2016,06,04,08,00,15.30
2016,06,04,08,01,15.30
2016,06,04,08,02,15.30
2016,06,04,08,03,15.30
2016,06,04,08,04,15.40
2016,06,04,08,05,15.40
2016,06,04,08,06,15.40
2016,06,04,08,07,15.40
2016,06,04,08,08,15.40
2016,06,04,08,09,15.40
2016,06,04,08,10,15.40
2016,06,04,08,11,15.50
2016,06,04,08,12,15.50
2016,06,04,08,13,15.50
2016,06,04,08,14,15.60
2016,06,04,08,15,15.60
2016,06,04,08,16,15.70
2016,06,04,08,17,15.80
2016,06,04,08,18,15.80
2016,06,04,08,19,15.90
2016,06,04,08,20,16.00
2016,06,04,08,21,16.10
2016,06,04,08,22,16.20
2016,06,04,08,23,16.30
2016,06,04,08,24,16.40
2016,06,04,08,25,16.50
2016,06,04,08,26,16.60
2016,06,04,08,27,16.70
2016,06,04,08,28,16.80
2016,06,04,08,29,16.90
2016,06,04,08,30,17.00
2016,06,04,08,31,17.00
2016,06,04,08,32,17.10
2016,06,04,08,33,17.20
2016,06,04,08,34,17.30
2016,06,04,08,35,17.40
2016,06,04,08,36,17.40
2016,06,04,08,37,17.50
2016,06,04,08,38,17.50
2016,06,04,08,39,17.60
2016,06,04,08,40,17.60
2016,06,04,08,41,17.70
2016,06,04,08,42,17.70
2016,06,04,08,43,17.80
2016,06,04,08,44,17.90
2016,06,04,08,45,18.00
2016,06,04,08,46,18.10
2016,06,04,08,47,18.10
2016,06,04,08,48,18.10
2016,06,04,08,49,18.10
2016,06,04,08,50,18.10
2016,06,04,08,51,18.10
2016,06,04,08,52,18.10
2016,06,04,08,53,18.10
2016,06,04,08,54,18.10
2016,06,04,08,55,18.20
2016,06,04,08,56,18.30
2016,06,04,08,57,18.20
2016,06,04,08,58,18.10
2016,06,04,08,59,18.10
2016,06,04,09,00,18.00
2016,06,04,09,01,18.00
2016,06,04,09,02,17.90
2016,06,04,09,03,17.90
2016,06,04,09,04,17.90
2016,06,04,09,05,17.90
2016,06,04,09,06,17.90
2016,06,04,09,07,18.00
2016,06,04,09,08,18.00
2016,06,04,09,09,18.00
2016,06,04,09,10,18.10
2016,06,04,09,11,18.10
2016,06,04,09,12,18.10
2016,06,04,09,13,18.20
2016,06,04,09,14,18.20
2016,06,04,09,15,18.30
2016,06,04,09,16,18.30
2016,06,04,09,17,18.40
2016,06,04,09,18,18.50
2016,06,04,09,19,18.50
2016,06,04,09,20,18.60
2016,06,04,09,21,18.60
2016,06,04,09,22,18.70
2016,06,04,09,23,18.80
2016,06,04,09,24,18.80
2016,06,04,09,25,18.80
2016,06,04,09,26,18.80
2016,06,04,09,27,18.70
2016,06,04,09,28,18.70
2016,06,04,09,29,18.60
2016,06,04,09,30,18.50
2016,06,04,09,31,18.50
2016,06,04,09,32,18.40
2016,06,04,09,33,18.30
2016,06,04,09,34,18.30
2016,06,04,09,35,18.30
2016,06,04,09,36,18.30
2016,06,04,09,37,18.30
2016,06,04,09,38,18.30
2016,06,04,09,39,18.20
2016,06,04,09,40,18.20
2016,06,04,09,41,18.20
2016,06,04,09,42,18.20
2016,06,04,09,43,18.20
2016,06,04,09,44,18.20
2016,06,04,09,45,18.30
2016,06,04,09,46,18.30
2016,06,04,09,47,18.30
2016,06,04,09,48,18.40
2016,06,04,09,49,18.40
2016,06,04,09,50,18.40
2016,06,04,09,51,18.50
2016,06,04,09,52,18.60
2016,06,04,09,53,18.60
2016,06,04,09,54,18.60
2016,06,04,09,55,18.50
2016,06,04,09,56,18.50
2016,06,04,09,57,18.50
2016,06,04,09,58,18.60
2016,06,04,09,59,18.70
2016,06,04,10,00,18.70
2016,06,04,10,01,18.70
2016,06,04,10,02,18.70
2016,06,04,10,03,18.70
2016,06,04,10,04,18.80
2016,06,04,10,05,18.90
2016,06,04,10,06,19.10
2016,06,04,10,07,19.20
2016,06,04,10,08,19.30
2016,06,04,10,09,19.50
2016,06,04,10,10,19.70
2016,06,04,10,11,19.80
2016,06,04,10,12,19.90
2016,06,04,10,13,19.90
2016,06,04,10,14,19.90
2016,06,04,10,15,19.90
2016,06,04,10,16,19.90
2016,06,04,10,17,19.90
2016,06,04,10,18,20.00
2016,06,04,10,19,20.00
2016,06,04,10,20,20.20
2016,06,04,10,21,20.20
2016,06,04,10,22,20.20
2016,06,04,10,23,20.20
2016,06,04,10,24,20.10
2016,06,04,10,25,20.00
2016,06,04,10,26,20.00
2016,06,04,10,27,19.90
2016,06,04,10,28,19.90
2016,06,04,10,29,19.90
2016,06,04,10,30,19.90
2016,06,04,10,31,19.90
2016,06,04,10,32,20.00
2016,06,04,10,33,20.10
2016,06,04,10,34,20.20
2016,06,04,10,35,20.30
2016,06,04,10,36,20.40
2016,06,04,10,37,20.50
2016,06,04,10,38,20.60
2016,06,04,10,39,20.70
2016,06,04,10,40,20.60
2016,06,04,10,41,20.60
2016,06,04,10,42,20.60
2016,06,04,10,43,20.70
2016,06,04,10,44,20.90
2016,06,04,10,45,21.00
2016,06,04,10,46,21.20
2016,06,04,10,47,21.30
2016,06,04,10,48,21.40
2016,06,04,10,49,21.40
2016,06,04,10,50,21.40
2016,06,04,10,51,21.40
2016,06,04,10,52,21.30
2016,06,04,10,53,21.30
2016,06,04,10,54,21.20
2016,06,04,10,55,21.20
2016,06,04,10,56,21.10
2016,06,04,10,57,21.10
2016,06,04,10,58,21.10
2016,06,04,10,59,21.10
2016,06,04,11,00,21.20
2016,06,04,11,01,21.20
2016,06,04,11,02,21.20
2016,06,04,11,03,21.30
2016,06,04,11,04,21.40
2016,06,04,11,05,21.50
2016,06,04,11,06,21.60
2016,06,04,11,07,21.80
2016,06,04,11,08,21.90
2016,06,04,11,09,22.00
2016,06,04,11,10,22.00
2016,06,04,11,11,22.00
2016,06,04,11,12,22.10
2016,06,04,11,13,22.20
2016,06,04,11,14,22.30
2016,06,04,11,15,22.20
2016,06,04,11,16,22.10
2016,06,04,11,17,22.10
2016,06,04,11,18,22.00
2016,06,04,11,19,22.10
2016,06,04,11,20,22.20
2016,06,04,11,21,22.30
2016,06,04,11,22,22.30
2016,06,04,11,23,22.40
2016,06,04,11,24,22.40
2016,06,04,11,25,22.50
2016,06,04,11,26,22.60
2016,06,04,11,27,22.60
2016,06,04,11,28,22.60
2016,06,04,11,29,22.60
2016,06,04,11,30,22.60
2016,06,04,11,31,22.60
2016,06,04,11,32,22.60
2016,06,04,11,33,22.60
2016,06,04,11,34,22.60
2016,06,04,11,35,22.60
2016,06,04,11,36,22.60
2016,06,04,11,37,22.60
2016,06,04,11,38,22.60
2016,06,04,11,39,22.70
2016,06,04,11,40,22.80
2016,06,04,11,41,23.00
2016,06,04,11,42,23.10
2016,06,04,11,43,23.10
2016,06,04,11,44,23.00
2016,06,04,11,45,22.90
2016,06,04,11,46,22.90
2016,06,04,11,47,22.90
2016,06,04,11,48,22.90
2016,06,04,11,49,23.00
2016,06,04,11,50,23.10
2016,06,04,11,51,23.20
2016,06,04,11,52,23.40
2016,06,04,11,53,23.50
2016,06,04,11,54,23.60
2016,06,04,11,55,23.60
2016,06,04,11,56,23.60
2016,06,04,11,57,23.60
2016,06,04,11,58,23.60
2016,06,04,11,59,23.60
2016,06,04,12,00,23.60
2016,06,04,12,01,23.60
2016,06,04,12,02,23.60
2016,06,04,12,03,23.70
2016,06,04,12,04,23.80
2016,06,04,12,05,23.80
2016,06,04,12,06,23.80
2016,06,04,12,07,23.90
2016,06,04,12,08,23.90
2016,06,04,12,09,23.90
2016,06,04,12,10,23.90
2016,06,04,12,11,23.90
2016,06,04,12,12,24.00
2016,06,04,12,13,24.00
2016,06,04,12,14,24.10
2016,06,04,12,15,24.10
2016,06,04,12,16,24.20
2016,06,04,12,17,24.20
2016,06,04,12,18,24.30
2016,06,04,12,19,24.40
2016,06,04,12,20,24.40
2016,06,04,12,21,24.40
2016,06,04,12,22,24.40
2016,06,04,12,23,24.40
2016,06,04,12,24,24.40
2016,06,04,12,25,24.50
2016,06,04,12,26,24.60
2016,06,04,12,27,24.70
2016,06,04,12,28,24.80
2016,06,04,12,29,24.90
2016,06,04,12,30,25.10
2016,06,04,12,31,25.20
2016,06,04,12,32,25.30
2016,06,04,12,33,25.20
2016,06,04,12,34,25.00
2016,06,04,12,35,24.80
2016,06,04,12,36,24.60
2016,06,04,12,37,24.50
2016,06,04,12,38,24.40
2016,06,04,12,39,24.40
2016,06,04,12,40,24.30
2016,06,04,12,41,24.30
2016,06,04,12,42,24.40
2016,06,04,12,43,24.50
2016,06,04,12,44,24.60
2016,06,04,12,45,24.70
2016,06,04,12,46,24.70
2016,06,04,12,47,24.60
2016,06,04,12,48,24.60
2016,06,04,12,49,24.70
2016,06,04,12,50,24.70
2016,06,04,12,51,24.80
2016,06,04,12,52,24.80
2016,06,04,12,53,24.80
2016,06,04,12,54,24.80
2016,06,04,12,55,24.90
2016,06,04,12,56,25.00
2016,06,04,12,57,25.10
2016,06,04,12,58,25.30
2016,06,04,12,59,25.30
2016,06,04,13,00,25.30
2016,06,04,13,01,25.30
2016,06,04,13,02,25.30
2016,06,04,13,03,25.20
2016,06,04,13,04,25.30
2016,06,04,13,05,25.30
2016,06,04,13,06,25.40
2016,06,04,13,07,25.50
2016,06,04,13,08,25.60
2016,06,04,13,09,25.70
2016,06,04,13,10,25.80
2016,06,04,13,11,25.80
2016,06,04,13,12,25.80
2016,06,04,13,13,25.80
2016,06,04,13,14,25.80
2016,06,04,13,15,25.80
2016,06,04,13,16,25.80
2016,06,04,13,17,25.70
2016,06,04,13,18,25.70
2016,06,04,13,19,25.70
2016,06,04,13,20,25.70
2016,06,04,13,21,25.70
2016,06,04,13,22,25.70
2016,06,04,13,23,25.80
2016,06,04,13,24,25.80
2016,06,04,13,25,25.70
2016,06,04,13,26,25.70
2016,06,04,13,27,25.80
2016,06,04,13,28,25.80
2016,06,04,13,29,26.00
2016,06,04,13,30,26.00
2016,06,04,13,31,26.10
2016,06,04,13,32,26.00
2016,06,04,13,33,25.90
2016,06,04,13,34,25.80
2016,06,04,13,35,25.80
2016,06,04,13,36,25.90
2016,06,04,13,37,26.00
2016,06,04,13,38,26.10
2016,06,04,13,39,26.20
2016,06,04,13,40,26.20
2016,06,04,13,41,26.20
2016,06,04,13,42,26.10
2016,06,04,13,43,26.10
2016,06,04,13,44,26.10
2016,06,04,13,45,26.20
2016,06,04,13,46,26.30
2016,06,04,13,47,26.40
2016,06,04,13,48,26.50
2016,06,04,13,49,26.50
2016,06,04,13,50,26.40
2016,06,04,13,51,26.40
2016,06,04,13,52,26.40
2016,06,04,13,53,26.40
2016,06,04,13,54,26.50
2016,06,04,13,55,26.50
2016,06,04,13,56,26.40
2016,06,04,13,57,26.50
2016,06,04,13,58,26.60
2016,06,04,13,59,26.60
2016,06,04,14,00,26.60
2016,06,04,14,01,26.60
2016,06,04,14,02,26.60
2016,06,04,14,03,26.70
2016,06,04,14,04,26.70
2016,06,04,14,05,26.70
2016,06,04,14,06,26.70
2016,06,04,14,07,26.70
2016,06,04,14,08,26.70
2016,06,04,14,09,26.80
2016,06,04,14,10,26.90
2016,06,04,14,11,26.90
2016,06,04,14,12,27.00
2016,06,04,14,13,27.10
2016,06,04,14,14,27.10
2016,06,04,14,15,27.20
2016,06,04,14,16,27.30
2016,06,04,14,17,27.40
2016,06,04,14,18,27.60
2016,06,04,14,19,27.70
2016,06,04,14,20,27.70
2016,06,04,14,21,27.80
2016,06,04,14,22,27.80
2016,06,04,14,23,27.80
2016,06,04,14,24,27.80
2016,06,04,14,25,27.80
2016,06,04,14,26,27.80
2016,06,04,14,27,27.90
2016,06,04,14,28,27.80
2016,06,04,14,29,27.70
2016,06,04,14,30,27.70
2016,06,04,14,31,27.70
2016,06,04,14,32,27.80
2016,06,04,14,33,27.80
2016,06,04,14,34,27.90
2016,06,04,14,35,28.00
2016,06,04,14,36,28.00
2016,06,04,14,37,28.10
2016,06,04,14,38,28.00
2016,06,04,14,39,27.80
2016,06,04,14,40,27.70
2016,06,04,14,41,27.70
2016,06,04,14,42,27.70
2016,06,04,14,43,27.80
2016,06,04,14,44,27.80
2016,06,04,14,45,27.80
2016,06,04,14,46,27.80
2016,06,04,14,47,27.90
2016,06,04,14,48,27.90
2016,06,04,14,49,27.80
2016,06,04,14,50,27.80
2016,06,04,14,51,27.80
2016,06,04,14,52,27.80
2016,06,04,14,53,27.90
2016,06,04,14,54,27.90
2016,06,04,14,55,28.00
2016,06,04,14,56,28.10
2016,06,04,14,57,28.10
2016,06,04,14,58,28.10
2016,06,04,14,59,28.20
2016,06,04,15,00,28.30
2016,06,04,15,01,28.40
2016,06,04,15,02,28.40
2016,06,04,15,03,28.40
2016,06,04,15,04,28.40
2016,06,04,15,05,28.30
2016,06,04,15,06,28.30
2016,06,04,15,07,28.20
2016,06,04,15,08,28.20
2016,06,04,15,09,28.20
2016,06,04,15,10,28.30
2016,06,04,15,11,28.40
2016,06,04,15,12,28.40
2016,06,04,15,13,28.40
2016,06,04,15,14,28.40
2016,06,04,15,15,28.30
2016,06,04,15,16,28.30
2016,06,04,15,17,28.30
2016,06,04,15,18,28.40
2016,06,04,15,19,28.40
2016,06,04,15,20,28.40
2016,06,04,15,21,28.30
2016,06,04,15,22,28.30
2016,06,04,15,23,28.30
2016,06,04,15,24,28.40
2016,06,04,15,25,28.40
2016,06,04,15,26,28.40
2016,06,04,15,27,28.30
2016,06,04,15,28,28.30
2016,06,04,15,29,28.20
2016,06,04,15,30,28.20
2016,06,04,15,31,28.10
2016,06,04,15,32,28.20
2016,06,04,15,33,28.20
2016,06,04,15,34,28.10
2016,06,04,15,35,28.20
2016,06,04,15,36,28.30
2016,06,04,15,37,28.40
2016,06,04,15,38,28.50
2016,06,04,15,39,28.60
2016,06,04,15,40,28.70
2016,06,04,15,41,28.80
2016,06,04,15,42,28.80
2016,06,04,15,43,28.70
2016,06,04,15,44,28.70
2016,06,04,15,45,28.80
2016,06,04,15,46,28.80
2016,06,04,15,47,28.90
2016,06,04,15,48,28.90
2016,06,04,15,49,28.90
2016,06,04,15,50,28.90
2016,06,04,15,51,29.00
2016,06,04,15,52,29.00
2016,06,04,15,53,29.00
2016,06,04,15,54,29.00
2016,06,04,15,55,29.10
2016,06,04,15,56,29.20
2016,06,04,15,57,29.20
2016,06,04,15,58,29.20
2016,06,04,15,59,29.10
2016,06,04,16,00,29.10
2016,06,04,16,01,29.20
2016,06,04,16,02,29.20
2016,06,04,16,03,29.30
2016,06,04,16,04,29.30
2016,06,04,16,05,29.40
2016,06,04,16,06,29.30
2016,06,04,16,07,29.20
2016,06,04,16,08,29.10
2016,06,04,16,09,29.00
2016,06,04,16,10,28.90
2016,06,04,16,11,28.80
2016,06,04,16,12,28.80
2016,06,04,16,13,28.70
2016,06,04,16,14,28.70
2016,06,04,16,15,28.80
2016,06,04,16,16,28.80
2016,06,04,16,17,28.80
2016,06,04,16,18,28.70
2016,06,04,16,19,28.60
2016,06,04,16,20,28.60
2016,06,04,16,21,28.70
2016,06,04,16,22,28.80
2016,06,04,16,23,28.90
2016,06,04,16,24,29.00
2016,06,04,16,25,29.10
2016,06,04,16,26,29.20
2016,06,04,16,27,29.30
2016,06,04,16,28,29.40
2016,06,04,16,29,29.50
2016,06,04,16,30,29.50
2016,06,04,16,31,29.60
2016,06,04,16,32,29.60
2016,06,04,16,33,29.60
2016,06,04,16,34,29.60
2016,06,04,16,35,29.60
2016,06,04,16,36,29.60
2016,06,04,16,37,29.50
2016,06,04,16,38,29.50
2016,06,04,16,39,29.50
2016,06,04,16,40,29.40
2016,06,04,16,41,29.40
2016,06,04,16,42,29.40
2016,06,04,16,43,29.50
2016,06,04,16,44,29.50
2016,06,04,16,45,29.40
2016,06,04,16,46,29.40
2016,06,04,16,47,29.50
2016,06,04,16,48,29.50
2016,06,04,16,49,29.50
2016,06,04,16,50,29.60
2016,06,04,16,51,29.60
2016,06,04,16,52,29.60
2016,06,04,16,53,29.60
2016,06,04,16,54,29.60
2016,06,04,16,55,29.60
2016,06,04,16,56,29.60
2016,06,04,16,57,29.60
2016,06,04,16,58,29.60
2016,06,04,16,59,29.70
2016,06,04,17,00,29.70
2016,06,04,17,01,29.80
2016,06,04,17,02,29.80
2016,06,04,17,03,29.80
2016,06,04,17,04,29.80
2016,06,04,17,05,29.80
2016,06,04,17,06,29.70
2016,06,04,17,07,29.60
2016,06,04,17,08,29.60
2016,06,04,17,09,29.70
2016,06,04,17,10,29.70
2016,06,04,17,11,29.80
2016,06,04,17,12,29.80
2016,06,04,17,13,29.80
2016,06,04,17,14,29.80
2016,06,04,17,15,29.80
2016,06,04,17,16,29.80
2016,06,04,17,17,29.80
2016,06,04,17,18,29.80
2016,06,04,17,19,29.80
2016,06,04,17,20,29.80